Regional Weather Roundup
Issued by NWS

Home | Current Version | Previous Version | Text Only | Print | Product List | Glossary On
Versions: 1 2 3 4 5 6 7 8 9 10 11 12 13 14 15 16 17 18 19 20 21 22 23 24 25 26 27 28 29 30 31 32 33 34 35 36 37 38 39 40 41 42 43 44 45 46 47 48 49 50
000
ASUS45 KREV 270910
RWRNV
NEVADA REGIONAL WEATHER ROUNDUP
NATIONAL WEATHER SERVICE RENO NV
200 AM PDT MON APR 27 2015

NOTE: "FAIR" INDICATES FEW OR NO CLOUDS BELOW 12,000 FEET WITH NO
SIGNIFICANT WEATHER AND/OR OBSTRUCTIONS TO VISIBILITY.

NVZ001-003-004-271000-
WESTERN NEVADA

CITY           SKY/WX    TMP DP  RH WIND       PRES   REMARKS
RENO           PTCLDY    47  32  56 SW3       30.24S
CARSON CITY    FAIR      41  30  65 CALM      30.25S
MINDEN         FAIR      34  30  86 E5        30.26
SLIDE MTN        N/A     32  19  59 E24         N/A
PYRAMID LAKE     N/A     52 N/A N/A SW7         N/A
FALLON         CLEAR     42  35  76 CALM      30.22F
LOVELOCK       PTCLDY    41  33  73 NW6       30.22S
$$

NVZ002-CAZ072-073-271000-
NORTHERN AND CENTRAL SIERRA

CITY           SKY/WX    TMP DP  RH WIND       PRES   REMARKS
S. LAKE TAHOE  CLEAR     37  27  67 CALM      30.24F
TRUCKEE        PTCLDY    30  28  93 CALM      30.25F
SQUAW VLY 8000   N/A     36  27  69 E6          N/A
BLUE CANYON    PTCLDY    50  25  37 VRB7      30.16F
MAMMOTH LAKES  FAIR      36  21  55 CALM      30.30S
BRIDGEPORT     FAIR      30  23  75 CALM      30.26F
$$

NVZ030-031-036-271000-
NORTHERN NEVADA

CITY           SKY/WX    TMP DP  RH WIND       PRES   REMARKS
ELKO           CLEAR     33  24  69 E3        30.25S
WINNEMUCCA     CLEAR     35  31  85 SE7       30.24F
WENDOVER       CLEAR     46  12  25 NW10      30.19F
$$

NVZ035-037-271000-
CENTRAL NEVADA

CITY           SKY/WX    TMP DP  RH WIND       PRES   REMARKS
ELY            CLEAR     32  20  61 N10       30.22S
EUREKA           N/A     28  18  66 S5        30.25F
$$

NVZ013-014-271000-
SOUTH CENTRAL NEVADA

CITY           SKY/WX    TMP DP  RH WIND       PRES   REMARKS
TONOPAH        CLEAR     39  20  46 N9        30.22S
$$

NVZ017-020-022-271000-
SOUTHERN NEVADA

CITY           SKY/WX    TMP DP  RH WIND       PRES   REMARKS
LAS VEGAS      PTCLDY    62  17  17 NW18G26   29.99S
N. LAS VEGAS   CLEAR     61  15  16 N16G26    30.02S
NELLIS AFB     CLEAR     62  21  20 NW7       30.02R
HENDERSON      CLEAR     59  20  22 N17       30.04S
MERCURY        CLEAR     53  18  25 NE18      30.10S
$$


USA.gov is the U.S. government's official web portal to all federal, state and local government web resources and services.